K9BM Weather Reports


time (UTC)temp
C
wind
direction
speed
KPH
gust
KPH
rain 1hr
cm
rain 24hr
cm
rain mn
cm
humidity
%
barometer
mb
20260510234504 25 309 12.9 20.9 0.00 0.00 0.00 13 1010.0
20260510234005 25 313 12.9 19.3 0.00 0.00 0.00 13 1010.0
20260510233505 25 332 4.8 20.9 0.00 0.00 0.00 12 1010.0
20260510233005 25 324 11.3 22.5 0.00 0.00 0.00 13 1010.1
20260510232005 25 282 12.9 22.5 0.00 0.00 0.00 12 1010.2
20260510231505 25 300 16.1 22.5 0.00 0.00 0.00 13 1010.3
20260510231006 25 321 14.5 25.7 0.00 0.00 0.00 13 1010.4
20260510230006 24 296 16.1 22.5 0.00 0.00 0.00 12 1010.5
20260510225505 24 310 14.5 20.9 0.00 0.00 0.00 12 1010.5
20260510225005 24 296 14.5 24.1 0.00 0.00 0.00 12 1010.6
20260510224505 24 291 16.1 24.1 0.00 0.00 0.00 11 1010.7
20260510224005 24 275 11.3 19.3 0.00 0.00 0.00 12 1010.8
20260510223505 24 305 8.0 22.5 0.00 0.00 0.00 13 1010.9
20260510223005 24 321 11.3 25.7 0.00 0.00 0.00 14 1010.9
20260510222505 24 312 16.1 25.7 0.00 0.00 0.00 13 1011.0
20260510222005 24 266 16.1 32.2 0.00 0.00 0.00 12 1011.0
20260510221505 24 276 19.3 35.4 0.00 0.00 0.00 13 1011.0
20260510221006 25 267 27.4 35.4 0.00 0.00 0.00 13 1011.0
20260510220005 25 245 16.1 35.4 0.00 0.00 0.00 13 1011.1
20260510215505 25 258 12.9 35.4 0.00 0.00 0.00 12 1011.2
20260510215005 25 246 19.3 35.4 0.00 0.00 0.00 14 1011.3
20260510214505 24 272 16.1 27.4 0.00 0.00 0.00 14 1011.4
20260510214005 24 250 22.5 27.4 0.00 0.00 0.00 13 1011.5
20260510213005 24 268 20.9 32.2 0.00 0.00 0.00 13 1011.7
20260510212505 24 278 22.5 33.8 0.00 0.00 0.00 13 1011.8
20260510212005 24 265 16.1 33.8 0.00 0.00 0.00 13 1011.8
20260510211505 24 273 17.7 37.0 0.00 0.00 0.00 15 1011.8
20260510205505 23 291 17.7 32.2 0.00 0.00 0.00 17 1011.9
20260510205005 23 288 22.5 35.4 0.00 0.00 0.00 18 1012.0
20260510204505 23 284 22.5 35.4 0.00 0.00 0.00 17 1012.1
20260510204005 23 294 19.3 32.2 0.00 0.00 0.00 19 1012.1
20260510203505 23 279 20.9 32.2 0.00 0.00 0.00 18 1012.2
20260510203005 23 284 19.3 32.2 0.00 0.00 0.00 19 1012.4
20260510202504 23 294 22.5 32.2 0.00 0.00 0.00 18 1012.4
20260510202005 23 287 16.1 29.0 0.00 0.00 0.00 18 1012.4
20260510201504 23 278 19.3 29.0 0.00 0.00 0.00 17 1012.6
20260510201005 23 284 8.0 29.0 0.00 0.00 0.00 17 1012.6
20260510200005 23 294 12.9 24.1 0.00 0.00 0.00 18 1012.8
20260510195505 22 284 9.7 24.1 0.00 0.00 0.00 18 1012.9
20260510194505 22 281 12.9 25.7 0.00 0.00 0.00 18 1013.1
20260510194005 22 278 16.1 25.7 0.00 0.00 0.00 18 1013.2
20260510193005 22 257 6.4 19.3 0.00 0.00 0.00 19 1013.4
20260510192505 22 282 4.8 16.1 0.00 0.00 0.00 19 1013.3
20260510191005 22 287 4.8 14.5 0.00 0.00 0.00 19 1013.6
20260510190005 21 286 4.8 19.3 0.00 0.00 0.00 23 1013.7
20260510185505 21 259 4.8 12.9 0.00 0.00 0.00 24 1013.9
20260510185005 21 188 1.6 16.1 0.00 0.00 0.00 24 1013.9
20260510184505 20 198 9.7 16.1 0.00 0.00 0.00 25 1014.1
20260510184005 20 249 3.2 19.3 0.00 0.00 0.00 24 1014.1
20260510183505 20 261 11.3 19.3 0.00 0.00 0.00 26 1014.2
20260510183005 20 251 8.0 19.3 0.00 0.00 0.00 26 1014.3
20260510182505 20 282 1.6 14.5 0.00 0.00 0.00 25 1014.4
20260510182005 20 311 3.2 19.3 0.00 0.00 0.00 25 1014.4
20260510181505 20 284 12.9 19.3 0.00 0.00 0.00 26 1014.5
20260510181005 20 259 4.8 12.9 0.00 0.00 0.00 27 1014.6
20260510175505 20 293 4.8 8.0 0.00 0.00 0.00 28 1014.8
20260510175005 20 128 1.6 8.0 0.00 0.00 0.00 28 1014.8
20260510174505 19 36 0.0 8.0 0.00 0.00 0.00 30 1014.9
20260510174005 18 104 3.2 12.9 0.00 0.00 0.00 31 1015.0
20260510173505 18 283 1.6 12.9 0.00 0.00 0.00 30 1015.1
20260510173005 18 331 4.8 16.1 0.00 0.00 0.00 31 1015.2
20260510171504 18 271 4.8 12.9 0.00 0.00 0.00 33 1015.4
20260510171005 17 186 3.2 4.8 0.00 0.00 0.00 34 1015.4
20260510170004 17 328 3.2 8.0 0.00 0.00 0.00 35 1015.4
20260510165505 17 336 3.2 9.7 0.00 0.00 0.00 36 1015.4
20260510165005 17 332 1.6 9.7 0.00 0.00 0.00 36 1015.5
20260510164505 16 329 1.6 8.0 0.00 0.00 0.00 36 1015.5
20260510164005 16 344 3.2 8.0 0.00 0.00 0.00 38 1015.5
20260510163505 16 350 3.2 9.7 0.00 0.00 0.00 37 1015.5
20260510163005 16 342 4.8 9.7 0.00 0.00 0.00 37 1015.5
20260510162504 16 286 1.6 11.3 0.00 0.00 0.00 37 1015.6
20260510162005 16 276 3.2 11.3 0.00 0.00 0.00 38 1015.6
20260510161505 15 286 3.2 12.9 0.00 0.00 0.00 38 1015.7
20260510161006 15 290 4.8 12.9 0.00 0.00 0.00 39 1015.7
20260510160004 15 287 4.8 14.5 0.00 0.00 0.00 39 1015.8
20260510155504 15 295 9.7 14.5 0.00 0.00 0.00 40 1015.9
20260510155005 14 275 8.0 16.1 0.00 0.00 0.00 41 1016.0
20260510154005 14 282 12.9 16.1 0.00 0.00 0.00 41 1016.1
20260510153505 13 289 9.7 19.3 0.00 0.00 0.00 42 1016.2
20260510153005 13 256 11.3 19.3 0.00 0.00 0.00 43 1016.2
20260510152504 13 284 14.5 19.3 0.00 0.00 0.00 42 1016.3
20260510152005 13 285 14.5 19.3 0.00 0.00 0.00 43 1016.3
20260510151505 13 283 9.7 16.1 0.00 0.00 0.00 44 1016.4
20260510151005 13 271 6.4 14.5 0.00 0.00 0.00 45 1016.4
20260510150005 13 283 6.4 11.3 0.00 0.00 0.00 45 1016.4
20260510145504 12 275 6.4 11.3 0.00 0.00 0.00 47 1016.4
20260510145004 12 285 6.4 11.3 0.00 0.00 0.00 49 1016.5
20260510144504 12 275 3.2 9.7 0.00 0.00 0.00 49 1016.4
20260510144005 12 282 3.2 11.3 0.00 0.00 0.00 50 1016.3
20260510143505 12 285 6.4 14.5 0.00 0.00 0.00 49 1016.3
20260510143005 11 277 6.4 14.5 0.00 0.00 0.00 50 1016.3
20260510142504 11 278 6.4 12.9 0.00 0.00 0.00 50 1016.4
20260510141504 11 265 9.7 16.1 0.00 0.00 0.00 50 1016.4
20260510141005 11 272 11.3 19.3 0.00 0.00 0.00 51 1016.4
20260510140005 10 271 14.5 19.3 0.00 0.00 0.00 52 1016.5
20260510135508 10 246 12.9 16.1 0.00 0.00 0.00 52 1016.5
20260510135005 10 256 12.9 16.1 0.00 0.00 0.00 53 1016.5
20260510134505 10 261 12.9 19.3 0.00 0.00 0.00 53 1016.6
20260510134005 10 260 11.3 19.3 0.00 0.00 0.00 54 1016.6
20260510133505 10 268 11.3 20.9 0.00 0.00 0.00 54 1016.6
20260510133005 10 275 14.5 20.9 0.00 0.00 0.00 54 1016.6
20260510132005 9 257 14.5 19.3 0.00 0.00 0.00 55 1016.7
20260510131504 9 278 14.5 19.3 0.00 0.00 0.00 54 1016.7
20260510131005 9 267 11.3 16.1 0.00 0.00 0.00 55 1016.7
20260510130004 8 272 11.3 14.5 0.00 0.00 0.00 56 1016.8
20260510125504 8 273 11.3 12.9 0.00 0.00 0.00 58 1016.9
20260510125004 8 262 9.7 12.9 0.00 0.00 0.00 59 1016.9
20260510124504 8 254 8.0 12.9 0.00 0.00 0.00 59 1016.9
20260510124005 7 276 8.0 12.9 0.00 0.00 0.00 60 1016.8
20260510123505 7 264 9.7 12.9 0.00 0.00 0.00 61 1016.8
20260510123004 7 283 9.7 12.9 0.00 0.00 0.00 62 1016.9
20260510122504 7 279 9.7 12.9 0.00 0.00 0.00 62 1016.9
20260510122005 6 282 9.7 12.9 0.00 0.00 0.00 62 1016.9
20260510121004 6 288 9.7 12.9 0.00 0.00 0.00 62 1016.8
20260510120004 7 279 9.7 12.9 0.00 0.00 0.00 58 1016.8
20260510115505 7 256 11.3 12.9 0.00 0.00 0.00 58 1016.8
20260510115005 7 269 9.7 14.5 0.00 0.00 0.00 60 1016.7
20260510114505 7 276 9.7 14.5 0.00 0.00 0.00 60 1016.8
20260510114004 7 270 11.3 14.5 0.00 0.00 0.00 61 1016.8
20260510113504 7 269 11.3 14.5 0.00 0.00 0.00 60 1016.8
20260510112005 7 248 12.9 16.1 0.00 0.00 0.00 56 1016.7
20260510111504 7 260 12.9 16.1 0.00 0.00 0.00 55 1016.7
20260510111005 7 247 12.9 16.1 0.00 0.00 0.00 55 1016.7
20260510110005 7 231 8.0 12.9 0.00 0.00 0.00 55 1016.7
20260510105504 7 236 9.7 12.9 0.00 0.00 0.00 55 1016.7
20260510105004 8 232 8.0 11.3 0.00 0.00 0.00 54 1016.6
20260510104504 8 235 9.7 11.3 0.00 0.00 0.00 54 1016.7
20260510103504 8 233 9.7 14.5 0.00 0.00 0.00 53 1016.8
20260510103004 8 233 9.7 14.5 0.00 0.00 0.00 53 1016.8
20260510102505 8 235 9.7 14.5 0.00 0.00 0.00 53 1016.8
20260510102004 8 230 9.7 14.5 0.00 0.00 0.00 53 1016.8
20260510101005 8 234 11.3 12.9 0.00 0.00 0.00 54 1016.7
20260510100005 8 238 8.0 11.3 0.00 0.00 0.00 54 1016.8
20260510095504 8 234 8.0 14.5 0.00 0.00 0.00 54 1016.8
20260510094504 8 232 9.7 16.1 0.00 0.00 0.00 54 1016.7
20260510093504 8 235 11.3 19.3 0.00 0.00 0.00 54 1016.6
20260510092504 8 232 11.3 16.1 0.00 0.00 0.00 55 1016.6
20260510092004 8 231 11.3 19.3 0.00 0.00 0.00 55 1016.5
20260510091504 8 235 12.9 19.3 0.00 0.00 0.00 55 1016.5
20260510091004 8 234 12.9 19.3 0.00 0.00 0.00 54 1016.5
20260510085504 8 233 12.9 19.3 0.00 0.00 0.00 54 1016.4
20260510085005 8 233 14.5 19.3 0.00 0.00 0.00 54 1016.4
20260510084504 8 233 12.9 19.3 0.00 0.00 0.00 55 1016.4
20260510084004 8 232 14.5 19.3 0.00 0.00 0.00 55 1016.3
20260510083505 7 232 12.9 19.3 0.00 0.00 0.00 57 1016.4
20260510082505 7 234 11.3 14.5 0.00 0.00 0.00 58 1016.4
20260510082004 7 231 11.3 14.5 0.00 0.00 0.00 59 1016.3
20260510081504 7 234 9.7 14.5 0.00 0.00 0.00 59 1016.3
20260510081005 7 233 9.7 14.5 0.00 0.00 0.00 59 1016.4
20260510080004 7 243 12.9 19.3 0.00 0.00 0.00 60 1016.3
20260510075505 7 246 14.5 19.3 0.00 0.00 0.00 60 1016.3
20260510075004 7 240 8.0 12.9 0.00 0.00 0.00 60 1016.2
20260510073504 7 251 9.7 14.5 0.00 0.00 0.00 62 1016.2
20260510073005 7 251 9.7 14.5 0.00 0.00 0.00 61 1016.1
20260510072505 7 237 8.0 12.9 0.00 0.00 0.00 59 1016.1
20260510072004 7 231 9.7 12.9 0.00 0.00 0.00 59 1016.1
20260510071504 7 232 9.7 12.9 0.00 0.00 0.00 60 1016.1
20260510071004 7 235 9.7 11.3 0.00 0.00 0.00 61 1016.1
20260510070004 7 240 8.0 12.9 0.00 0.00 0.00 60 1016.1
20260510065504 7 227 8.0 9.7 0.00 0.00 0.00 61 1016.1
20260510065004 7 209 8.0 9.7 0.00 0.00 0.00 63 1016.1
20260510064504 7 204 6.4 11.3 0.00 0.00 0.00 63 1016.1
20260510064004 7 203 8.0 12.9 0.00 0.00 0.00 64 1016.1
20260510063504 7 202 6.4 12.9 0.00 0.00 0.00 64 1016.0
20260510063005 7 199 9.7 12.9 0.00 0.00 0.00 64 1016.0
20260510062505 7 195 11.3 11.3 0.00 0.00 0.00 64 1015.9
20260510062005 7 194 9.7 11.3 0.00 0.00 0.00 64 1016.0
20260510061504 7 197 8.0 9.7 0.00 0.00 0.00 64 1016.0
20260510061004 7 189 6.4 11.3 0.00 0.00 0.00 64 1016.0
20260510060005 7 194 9.7 11.3 0.00 0.00 0.00 64 1015.9
20260510055504 7 199 9.7 11.3 0.00 0.00 0.00 64 1015.9
20260510055005 8 201 8.0 9.7 0.00 0.00 0.00 65 1015.9
20260510054005 8 178 9.7 9.7 0.00 0.00 0.00 65 1015.6
20260510053504 9 150 8.0 8.0 0.00 0.00 0.00 65 1015.5
20260510053005 9 145 4.8 8.0 0.00 0.00 0.00 65 1015.5
20260510052505 9 139 4.8 8.0 0.00 0.00 0.00 64 1015.4
20260510051504 9 139 8.0 8.0 0.00 0.00 0.00 66 1015.4
20260510051005 8 139 4.8 12.9 0.00 0.00 0.00 67 1015.5
20260510050004 8 141 9.7 12.9 0.00 0.00 0.00 69 1015.4
20260510045504 8 139 9.7 14.5 0.00 0.00 0.00 67 1015.4
20260510045005 8 128 11.3 14.5 0.00 0.00 0.00 66 1015.4
20260510044005 9 116 11.3 11.3 0.00 0.00 0.00 66 1015.5
20260510043505 9 115 11.3 11.3 0.00 0.00 0.00 66 1015.5
20260510043005 9 114 11.3 11.3 0.00 0.00 0.00 66 1015.5
20260510042005 9 108 11.3 11.3 0.00 0.00 0.00 66 1015.5
20260510041504 9 108 9.7 11.3 0.00 0.00 0.00 66 1015.4
20260510041005 9 108 9.7 11.3 0.00 0.00 0.00 66 1015.3
20260510040004 9 113 9.7 12.9 0.00 0.00 0.00 65 1015.2
20260510035004 10 120 11.3 14.5 0.00 0.00 0.00 64 1015.0
20260510034504 10 124 11.3 14.5 0.00 0.00 0.00 64 1014.9
20260510034005 10 129 12.9 16.1 0.00 0.00 0.00 63 1014.9
20260510033505 10 132 14.5 16.1 0.00 0.00 0.00 63 1014.7
20260510033004 10 131 14.5 16.1 0.00 0.00 0.00 62 1014.7
20260510032504 10 129 12.9 14.5 0.00 0.00 0.00 61 1014.7
20260510032004 11 126 12.9 14.5 0.00 0.00 0.00 60 1014.7
20260510031504 11 125 11.3 14.5 0.00 0.00 0.00 59 1014.6
20260510031004 11 121 12.9 14.5 0.00 0.00 0.00 58 1014.5
20260510030004 12 127 12.9 16.1 0.00 0.00 0.00 57 1014.4
20260510025504 12 127 12.9 16.1 0.00 0.00 0.00 56 1014.3
20260510025005 12 124 12.9 16.1 0.00 0.00 0.00 55 1014.3
20260510024504 12 119 12.9 14.5 0.00 0.00 0.00 54 1014.3
20260510023504 13 107 11.3 16.1 0.00 0.00 0.00 52 1014.2
20260510023004 13 102 11.3 16.1 0.00 0.00 0.00 51 1014.1
20260510022504 13 97 11.3 16.1 0.00 0.00 0.00 50 1014.0
20260510021505 13 85 11.3 19.3 0.00 0.00 0.00 49 1013.9
20260510021004 14 85 12.9 19.3 0.00 0.00 0.00 49 1013.8
20260510020004 14 77 12.9 19.3 0.00 0.00 0.00 47 1013.8
20260510015504 14 75 9.7 16.1 0.00 0.00 0.00 46 1013.9
20260510015004 15 57 9.7 16.1 0.00 0.00 0.00 44 1013.9
20260510014504 15 60 8.0 16.1 0.00 0.00 0.00 42 1013.8
20260510014004 15 24 8.0 16.1 0.00 0.00 0.00 40 1013.8
20260510013504 15 18 4.8 9.7 0.00 0.00 0.00 38 1013.7
20260510013004 15 28 4.8 14.5 0.00 0.00 0.00 38 1013.6
20260510012505 15 31 8.0 14.5 0.00 0.00 0.00 37 1013.4
20260510012005 15 24 6.4 19.3 0.00 0.00 0.00 36 1013.3
20260510011504 15 26 9.7 19.3 0.00 0.00 0.00 36 1013.2
20260510011004 16 340 11.3 16.1 0.00 0.00 0.00 35 1013.2
20260510010005 16 291 9.7 16.1 0.00 0.00 0.00 33 1013.2
20260510005504 16 289 9.7 14.5 0.00 0.00 0.00 32 1013.2
20260510005004 16 285 8.0 19.3 0.00 0.00 0.00 33 1013.2
20260510004504 16 302 11.3 19.3 0.00 0.00 0.00 31 1013.3
20260510004004 16 294 12.9 19.3 0.00 0.00 0.00 31 1013.2
20260510003504 17 304 6.4 16.1 0.00 0.00 0.00 31 1013.2
20260510002504 17 312 11.3 19.3 0.00 0.00 0.00 32 1013.0
20260510002004 17 246 11.3 19.3 0.00 0.00 0.00 30 1013.0
20260510001004 17 317 4.8 20.9 0.00 0.00 0.00 31 1013.0
20260510000004 17 252 14.5 24.1 0.00 0.00 0.00 32 1013.0
20260509235504 17 284 11.3 20.9 0.00 0.00 0.00 31 1013.0
20260509235004 17 271 11.3 19.3 0.00 0.00 0.00 32 1013.0